Regional Weather Roundup
Issued by NWS Albany, NY

Home | Current Version | Previous Version | Text Only | Print | Product List | Glossary On
Versions: 1 2 3 4 5 6 7 8 9 10 11 12 13 14 15 16 17 18 19 20 21 22 23 24 25 26 27 28 29 30 31 32 33 34 35 36 37 38 39 40 41 42 43 44 45 46 47 48 49
000
ASUS41 KALY 041010
RWRALY

NEW YORK STATE HOURLY WEATHER ROUNDUP
NATIONAL WEATHER SERVICE ALBANY NY
500 AM EST WED MAR 04 2015

NOTE: "FAIR" INDICATES FEW OR NO CLOUDS BELOW 12,000 FEET WITH NO
SIGNIFICANT WEATHER AND/OR NO OBSTRUCTIONS TO VISIBILITY.

NYZ032-033-038>043-046>054-057>066-NYZ062>081-041100-
EAST


CITY           SKY/WX    TMP DP  RH WIND       PRES   REMARKS
ALBANY         CLOUDY    33  27  78 S8        29.70R WCI  26
GLENS FALLS    CLOUDY    30  27  88 SW5       29.67R WCI  25
POUGHKEEPSIE   CLOUDY    35  31  85 S5        29.74R WCI  31
NEWBURGH       LGT RAIN  34  32  93 SW8       29.74R WCI  27
MONTGOMERY     CLOUDY    34  31  88 SW7       29.73R WCI  28
WHITE PLAINS   LGT RAIN  34  32  92 W7        29.75R FOG     WCI  28
ISLIP          CLOUDY    36  33  89 W9        29.77R WCI  29
NEW YORK CITY  CLOUDY    37  32  82 W8        29.79R WCI  31
CENTRAL PARK   CLOUDY    36  31  82 W3        29.80R
$$

NYZ005>009-017-018-044>046-055-056-041100-
CENTRAL


CITY           SKY/WX    TMP DP  RH WIND       PRES   REMARKS
FULTON         CLOUDY    34  28  79 W12G20    29.75R WCI  25
SYRACUSE       FRZ DRZL  29  29 100 W13       29.74R WCI  19
ROME           CLOUDY    32  29  88 W13       29.74R WCI  22
ELMIRA         CLOUDY    31  31 100 CALM      29.73R FOG
BINGHAMTON     CLOUDY    30  29  96 SW6       29.70R FOG     WCI  24
MONTICELLO     CLOUDY    28  27  93 NW5       29.72S WCI  23
$$

NYZ026>034-041>043-041100-
NORTH


CITY           SKY/WX    TMP DP  RH WIND       PRES   REMARKS
WATERTOWN      CLOUDY    34  27  75 W12       29.70R WCI  25
FORT DRUM      NOT AVBL
MASSENA        CLOUDY    31  29  92 W8        29.66R WCI  23
SARANAC LAKE   CLOUDY    28  25  88 W12G20    29.57R WCI  18
PLATTSBURGH    CLOUDY    33  27  78 VRB3      29.61R
$$

NYZ001>004-010>016-019>021-041100-
WEST


CITY           SKY/WX    TMP DP  RH WIND       PRES   REMARKS
NIAGARA FALLS  CLOUDY    32  26  78 W22       29.76R WCI  19
BUFFALO        CLOUDY    33  27  78 W12       29.76R WCI  24
DUNKIRK        CLOUDY    33  30  88 SW9       29.79R WCI  25
JAMESTOWN      CLOUDY    30  27  86 W10       29.75R WCI  21
WELLSVILLE     CLOUDY    33  29  85 W13G25    29.72R WCI  24
ROCHESTER      CLOUDY    33  29  85 W10       29.75R WCI  25
PENN YAN       CLOUDY    37  29  72 W16G26    29.73R WCI  28
$$

             KEY
       WCI = WIND CHILL INDEX
       VSB = VISIBILITY
       HX  = HEAT INDEX
$$



USA.gov is the U.S. government's official web portal to all federal, state and local government web resources and services.